| time (UTC) | temp F | wind direction | speed knots | gust knots | rain 1hr in | rain 24hr in | rain mn in | humidity % | barometer mb |
| 20260902160940 | 83 | 113 | 3.5 | 5.2 | 0.00 | 0.00 | 0.00 | 72 | 1017.5 |
| 20260902155939 | 83 | 143 | 2.6 | 7.0 | 0.00 | 0.00 | 0.00 | 69 | 1017.3 |
| 20260902154939 | 84 | 91 | 2.6 | 6.1 | 0.00 | 0.00 | 0.00 | 68 | 1017.3 |
| 20260902153939 | 84 | 88 | 3.5 | 7.0 | 0.00 | 0.00 | 0.00 | 67 | 1017.5 |
| 20260902151939 | 84 | 92 | 3.5 | 7.0 | 0.00 | 0.00 | 0.00 | 66 | 1017.4 |
| 20260902150940 | 84 | 99 | 3.5 | 7.0 | 0.00 | 0.00 | 0.00 | 64 | 1017.5 |
| 20260902145940 | 85 | 84 | 3.5 | 7.0 | 0.00 | 0.00 | 0.00 | 63 | 1017.5 |
| 20260902144939 | 85 | 108 | 2.6 | 7.8 | 0.00 | 0.00 | 0.00 | 65 | 1017.8 |
| 20260902143939 | 85 | 84 | 3.5 | 7.0 | 0.00 | 0.00 | 0.00 | 66 | 1017.7 |
| 20260902142939 | 85 | 89 | 1.7 | 9.6 | 0.00 | 0.00 | 0.00 | 65 | 1017.7 |
| 20260902140939 | 85 | 98 | 2.6 | 7.8 | 0.00 | 0.00 | 0.00 | 65 | 1018.0 |
| 20260902135939 | 85 | 110 | 3.5 | 7.0 | 0.00 | 0.00 | 0.00 | 66 | 1017.9 |
| 20260902134940 | 85 | 87 | 3.5 | 9.6 | 0.00 | 0.00 | 0.00 | 67 | 1018.1 |
| 20260902132939 | 86 | 84 | 6.1 | 9.6 | 0.00 | 0.00 | 0.00 | 67 | 1018.2 |
| 20260902131939 | 86 | 95 | 5.2 | 9.6 | 0.00 | 0.00 | 0.00 | 66 | 1018.3 |
| 20260902124939 | 85 | 106 | 3.5 | 9.6 | 0.00 | 0.00 | 0.00 | 68 | 1018.5 |
| 20260902123939 | 86 | 83 | 5.2 | 9.6 | 0.00 | 0.00 | 0.00 | 69 | 1018.7 |
| 20260902122939 | 85 | 100 | 6.1 | 7.8 | 0.00 | 0.00 | 0.00 | 69 | 1018.6 |
| 20260902121939 | 86 | 110 | 3.5 | 9.6 | 0.00 | 0.00 | 0.00 | 68 | 1018.9 |
| 20260902120939 | 86 | 94 | 3.5 | 7.8 | 0.00 | 0.00 | 0.00 | 67 | 1018.6 |
| 20260902115939 | 86 | 66 | 0.9 | 7.0 | 0.00 | 0.00 | 0.00 | 66 | 1018.7 |
| 20260902114939 | 86 | 94 | 1.7 | 6.1 | 0.00 | 0.00 | 0.00 | 67 | 1018.7 |
| 20260902113941 | 87 | 122 | 1.7 | 7.0 | 0.00 | 0.00 | 0.00 | 66 | 1018.6 |
| 20260902112939 | 86 | 99 | 1.7 | 7.8 | 0.00 | 0.00 | 0.00 | 65 | 1019.0 |
| 20260902111938 | 85 | 98 | 1.7 | 7.8 | 0.00 | 0.00 | 0.00 | 68 | 1019.0 |
| 20260902110939 | 85 | 93 | 5.2 | 11.3 | 0.00 | 0.00 | 0.00 | 70 | 1019.3 |
| 20260902105939 | 86 | 90 | 3.5 | 7.8 | 0.00 | 0.00 | 0.00 | 67 | 1019.1 |
| 20260902104938 | 86 | 88 | 4.3 | 9.6 | 0.00 | 0.00 | 0.00 | 66 | 1019.1 |
| 20260902103939 | 85 | 85 | 1.7 | 9.6 | 0.00 | 0.00 | 0.00 | 63 | 1019.1 |
| 20260902101938 | 85 | 65 | 3.5 | 11.3 | 0.00 | 0.00 | 0.00 | 65 | 1019.3 |
| 20260902100939 | 86 | 89 | 7.0 | 12.2 | 0.00 | 0.00 | 0.00 | 65 | 1019.3 |
| 20260902095939 | 86 | 96 | 4.3 | 9.6 | 0.00 | 0.00 | 0.00 | 64 | 1019.4 |
| 20260902094938 | 85 | 96 | 7.0 | 9.6 | 0.00 | 0.00 | 0.00 | 65 | 1019.4 |
| 20260902093939 | 85 | 97 | 2.6 | 9.6 | 0.00 | 0.00 | 0.00 | 63 | 1019.3 |
| 20260902092938 | 87 | 69 | 3.5 | 11.3 | 0.00 | 0.00 | 0.00 | 60 | 1019.1 |
| 20260902091938 | 86 | 87 | 0.9 | 9.6 | 0.00 | 0.00 | 0.00 | 53 | 1019.4 |
| 20260902090938 | 88 | 88 | 3.5 | 7.8 | 0.00 | 0.00 | 0.00 | 53 | 1019.1 |
| 20260902085939 | 86 | 77 | 4.3 | 7.8 | 0.00 | 0.00 | 0.00 | 55 | 1019.1 |
| 20260902084938 | 87 | 89 | 4.3 | 7.8 | 0.00 | 0.00 | 0.00 | 56 | 1019.0 |
| 20260902083938 | 86 | 53 | 4.3 | 7.8 | 0.00 | 0.00 | 0.00 | 57 | 1019.1 |
| 20260902082938 | 87 | 54 | 1.7 | 5.2 | 0.00 | 0.00 | 0.00 | 57 | 1019.0 |
| 20260902080938 | 86 | 83 | 1.7 | 5.2 | 0.00 | 0.00 | 0.00 | 62 | 1018.8 |
| 20260902075940 | 85 | 29 | 0.9 | 3.5 | 0.00 | 0.00 | 0.00 | 62 | 1018.9 |
| 20260902074937 | 85 | 45 | 1.7 | 3.5 | 0.00 | 0.00 | 0.00 | 62 | 1018.8 |
| 20260902073938 | 83 | 44 | 1.7 | 5.2 | 0.00 | 0.00 | 0.00 | 63 | 1018.7 |
| 20260902072937 | 83 | 26 | 1.7 | 3.5 | 0.00 | 0.00 | 0.00 | 62 | 1018.7 |
| 20260902071938 | 85 | 38 | 1.7 | 3.5 | 0.00 | 0.00 | 0.00 | 62 | 1018.6 |
| 20260902070937 | 83 | 0 | 0.0 | 1.7 | 0.00 | 0.00 | 0.00 | 50 | 1018.6 |
| 20260902065938 | 82 | 0 | 0.0 | 1.7 | 0.00 | 0.00 | 0.00 | 53 | 1018.7 |
| 20260902064938 | 80 | 166 | 0.9 | 1.7 | 0.00 | 0.00 | 0.00 | 59 | 1018.7 |
| 20260902062938 | 81 | 0 | 0.0 | 1.7 | 0.00 | 0.00 | 0.00 | 59 | 1018.7 |
| 20260902061938 | 82 | 0 | 0.0 | 1.7 | 0.00 | 0.00 | 0.00 | 47 | 1018.5 |
| 20260902060937 | 80 | 0 | 0.0 | 1.7 | 0.00 | 0.00 | 0.00 | 48 | 1018.6 |
| 20260902054938 | 80 | 249 | 1.7 | 1.7 | 0.00 | 0.00 | 0.00 | 45 | 1018.3 |
| 20260902053937 | 78 | 227 | 1.7 | 3.5 | 0.00 | 0.00 | 0.00 | 46 | 1018.3 |
| 20260902045938 | 78 | 285 | 1.7 | 1.7 | 0.00 | 0.00 | 0.00 | 48 | 1018.3 |
| 20260902044937 | 78 | 269 | 1.7 | 1.7 | 0.00 | 0.00 | 0.00 | 49 | 1018.2 |
| 20260902043937 | 78 | 292 | 1.7 | 3.5 | 0.00 | 0.00 | 0.00 | 48 | 1017.8 |
| 20260902042937 | 79 | 272 | 1.7 | 3.5 | 0.00 | 0.00 | 0.00 | 46 | 1018.0 |
| 20260902041937 | 79 | 273 | 1.7 | 3.5 | 0.00 | 0.00 | 0.00 | 47 | 1018.0 |
| 20260902035938 | 78 | 288 | 1.7 | 3.5 | 0.00 | 0.00 | 0.00 | 48 | 1017.8 |
| 20260902034937 | 79 | 279 | 1.7 | 3.5 | 0.00 | 0.00 | 0.00 | 47 | 1017.7 |
| 20260902033937 | 78 | 270 | 1.7 | 1.7 | 0.00 | 0.00 | 0.00 | 47 | 1017.6 |
| 20260902032937 | 79 | 316 | 0.9 | 1.7 | 0.00 | 0.00 | 0.00 | 46 | 1017.7 |
| 20260902031937 | 79 | 0 | 0.0 | 3.5 | 0.00 | 0.00 | 0.00 | 45 | 1017.6 |
| 20260902025938 | 80 | 225 | 1.7 | 3.5 | 0.00 | 0.00 | 0.00 | 44 | 1017.6 |
| 20260902024937 | 79 | 269 | 1.7 | 3.5 | 0.00 | 0.00 | 0.00 | 45 | 1017.9 |
| 20260902023937 | 80 | 232 | 1.7 | 1.7 | 0.00 | 0.00 | 0.00 | 45 | 1017.7 |
| 20260902022937 | 79 | 269 | 1.7 | 3.5 | 0.00 | 0.00 | 0.00 | 45 | 1017.7 |
| 20260902021937 | 79 | 278 | 1.7 | 1.7 | 0.00 | 0.00 | 0.00 | 46 | 1017.8 |
| 20260902020937 | 78 | 269 | 1.7 | 1.7 | 0.00 | 0.00 | 0.00 | 48 | 1017.7 |
| 20260902015938 | 78 | 0 | 0.0 | 3.5 | 0.00 | 0.00 | 0.00 | 48 | 1017.9 |
| 20260902014937 | 79 | 281 | 1.7 | 3.5 | 0.00 | 0.00 | 0.00 | 48 | 1017.9 |
| 20260902013936 | 77 | 276 | 1.7 | 3.5 | 0.00 | 0.00 | 0.00 | 50 | 1017.6 |
| 20260902012937 | 78 | 288 | 1.7 | 3.5 | 0.00 | 0.00 | 0.00 | 50 | 1017.8 |
| 20260902010936 | 78 | 306 | 1.7 | 3.5 | 0.00 | 0.00 | 0.00 | 52 | 1017.7 |
| 20260902004937 | 80 | 276 | 1.7 | 1.7 | 0.00 | 0.00 | 0.00 | 49 | 1017.7 |
| 20260902003937 | 80 | 285 | 1.7 | 1.7 | 0.00 | 0.00 | 0.00 | 48 | 1017.7 |
| 20260902002936 | 80 | 275 | 0.9 | 3.5 | 0.00 | 0.00 | 0.00 | 47 | 1017.9 |
| 20260902001937 | 81 | 275 | 1.7 | 3.5 | 0.00 | 0.00 | 0.00 | 45 | 1017.9 |
| 20260901235937 | 81 | 276 | 1.7 | 3.5 | 0.00 | 0.00 | 0.00 | 44 | 1017.9 |
| 20260901234937 | 80 | 285 | 1.7 | 3.5 | 0.00 | 0.00 | 0.00 | 44 | 1018.1 |
| 20260901233936 | 81 | 277 | 1.7 | 3.5 | 0.00 | 0.00 | 0.00 | 46 | 1018.1 |
| 20260901232936 | 80 | 279 | 1.7 | 3.5 | 0.00 | 0.00 | 0.00 | 44 | 1018.2 |
| 20260901231936 | 82 | 226 | 1.7 | 3.5 | 0.00 | 0.00 | 0.00 | 43 | 1018.1 |
| 20260901230936 | 82 | 235 | 1.7 | 3.5 | 0.00 | 0.00 | 0.00 | 44 | 1018.0 |
| 20260901224936 | 80 | 0 | 0.0 | 3.5 | 0.00 | 0.00 | 0.00 | 45 | 1018.1 |
| 20260901223936 | 81 | 280 | 1.7 | 3.5 | 0.00 | 0.00 | 0.00 | 44 | 1018.2 |
| 20260901222936 | 82 | 268 | 2.6 | 3.5 | 0.00 | 0.00 | 0.00 | 44 | 1018.1 |
| 20260901221936 | 84 | 235 | 1.7 | 3.5 | 0.00 | 0.00 | 0.00 | 41 | 1018.2 |
| 20260901220936 | 83 | 229 | 1.7 | 3.5 | 0.00 | 0.00 | 0.00 | 40 | 1018.4 |
| 20260901214936 | 80 | 265 | 1.7 | 1.7 | 0.00 | 0.00 | 0.00 | 49 | 1018.3 |
| 20260901212936 | 81 | 238 | 0.9 | 5.2 | 0.00 | 0.00 | 0.00 | 54 | 1018.4 |
| 20260901211936 | 80 | 209 | 1.7 | 3.5 | 0.00 | 0.00 | 0.00 | 57 | 1018.5 |
| 20260901210936 | 80 | 249 | 0.9 | 3.5 | 0.00 | 0.00 | 0.00 | 58 | 1018.4 |
| 20260901205936 | 80 | 269 | 1.7 | 3.5 | 0.00 | 0.00 | 0.00 | 59 | 1018.6 |
| 20260901203936 | 78 | 276 | 1.7 | 3.5 | 0.00 | 0.00 | 0.00 | 66 | 1018.4 |
| 20260901202936 | 78 | 274 | 2.6 | 3.5 | 0.00 | 0.00 | 0.00 | 69 | 1018.5 |
| 20260901201935 | 78 | 263 | 0.9 | 1.7 | 0.00 | 0.00 | 0.00 | 69 | 1018.5 |
| 20260901200935 | 78 | 0 | 0.0 | 1.7 | 0.00 | 0.00 | 0.00 | 69 | 1018.5 |
| 20260901195936 | 78 | 278 | 1.7 | 1.7 | 0.00 | 0.00 | 0.00 | 69 | 1018.5 |
| 20260901194936 | 78 | 261 | 1.7 | 3.5 | 0.00 | 0.00 | 0.00 | 70 | 1018.5 |
| 20260901193936 | 78 | 270 | 1.7 | 3.5 | 0.00 | 0.00 | 0.00 | 70 | 1018.2 |
| 20260901192936 | 77 | 0 | 0.0 | 1.7 | 0.00 | 0.00 | 0.00 | 71 | 1017.9 |
| 20260901191936 | 78 | 267 | 0.9 | 1.7 | 0.00 | 0.00 | 0.00 | 71 | 1018.1 |
| 20260901190935 | 77 | 0 | 0.0 | 1.7 | 0.00 | 0.00 | 0.00 | 72 | 1018.1 |
| 20260901185937 | 77 | 274 | 1.7 | 1.7 | 0.00 | 0.00 | 0.00 | 72 | 1017.8 |
| 20260901184935 | 78 | 269 | 0.9 | 1.7 | 0.00 | 0.00 | 0.00 | 72 | 1017.9 |
| 20260901183936 | 78 | 248 | 0.9 | 1.7 | 0.00 | 0.00 | 0.00 | 72 | 1017.8 |
| 20260901182936 | 78 | 248 | 0.9 | 1.7 | 0.00 | 0.00 | 0.00 | 71 | 1017.8 |
| 20260901181937 | 78 | 0 | 0.0 | 1.7 | 0.00 | 0.00 | 0.00 | 71 | 1017.6 |
| 20260901175939 | 79 | 0 | 0.0 | 1.7 | 0.00 | 0.00 | 0.00 | 69 | 1017.4 |
| 20260901174938 | 80 | 0 | 0.0 | 1.7 | 0.00 | 0.00 | 0.00 | 69 | 1017.5 |
| 20260901173939 | 80 | 0 | 0.0 | 1.7 | 0.00 | 0.00 | 0.00 | 67 | 1017.5 |
| 20260901172938 | 80 | 0 | 0.0 | 3.5 | 0.00 | 0.00 | 0.00 | 66 | 1017.4 |
| 20260901171939 | 81 | 354 | 1.7 | 3.5 | 0.00 | 0.00 | 0.00 | 65 | 1017.5 |
| 20260901170940 | 82 | 0 | 0.0 | 1.7 | 0.00 | 0.00 | 0.00 | 63 | 1017.5 |
| 20260901165940 | 82 | 0 | 0.0 | 3.5 | 0.00 | 0.00 | 0.00 | 63 | 1017.5 |
| 20260901164940 | 82 | 75 | 1.7 | 6.1 | 0.00 | 0.00 | 0.00 | 62 | 1017.5 |
| 20260901163941 | 83 | 105 | 1.7 | 3.5 | 0.00 | 0.00 | 0.00 | 63 | 1017.4 |
| 20260901162941 | 82 | 106 | 1.7 | 5.2 | 0.00 | 0.00 | 0.00 | 64 | 1017.6 |